User: anonymous   Login
Location: Red Deer
(52.2681°N, 113.8112°W)
Time: 02:44:53
(UTC-06:00)
Language:

EO-79 - Orbit

View from above orbital plane
View from above orbital plane
View from above satellite
View from above satellite

Ground track
Ground track

The orbit data is extracted from the following two-line orbital elements,

1 40025U 14033R   22135.83040359  .00003771  00000-0  39325-3 0  9990
2 40025  97.9596  72.9831 0012683 157.3735 202.8044 14.90327091428908
Epoch (UTC): 15 May 2022 19:55:46
Eccentricity: 0.0012683
inclination: 97.9596°
perigee height: 588 km
apogee height: 606 km
right ascension of ascending node: 72.9831°
argument of perigee: 157.3735°
revolutions per day: 14.90327091
mean anomaly at epoch: 202.8044°
orbit number at epoch: 42890

The dashed part of the orbit path shows where the satellite is in the earth's shadow,  

DLR